Weather History for Pescara, Italy

Change the Weather History Date:

Wednesday, October 31, 2012

  Actual Average Record
Temperature  
Mean Temperature 48 °F -  
Max Temperature 53 °F 60 °F 80 °F (2004)
Min Temperature 42 °F 44 °F 41 °F (2010)
Degree Days  
Heating Degree Days 18    
Moisture  
Dew Point 44 °F    
Average Humidity 82    
Maximum Humidity 94    
Minimum Humidity 67    
Precipitation  
Precipitation 0.00 in 0.09 in - ()
Sea Level Pressure  
Sea Level Pressure 29.65 in    
Wind  
Wind Speed 4 mph ()    
Max Wind Speed 6 mph    
Max Gust Speed -    
Visibility 4.6 miles    
Events Rain    
Averages and records for this station are not official NWS values.
T = Trace of Precipitation, MM = Missing Value Source: Averaged Metar Reports

Daily Weather History Graph

Daily Weather History Graph

Search for Another Location

Airport:

Trip Planner

Search our weather history database for the weather conditions in past years. The results will help you decide how hot, cold, wet, or windy it might be!

Date:

Astronomy

Oct. 31, 2012 Rise Set
Actual Time 6:35 AM CET 4:57 PM CET
Civil Twilight 6:06 AM CET 5:26 PM CET
Nautical Twilight 5:33 AM CET 5:59 PM CET
Astronomical Twilight 5:00 AM CET 6:32 PM CET
Moon 5:53 PM CET (10/31) 8:03 AM CET (10/31)
Length of Visible Light 11h 20m
Length of Day
10h 21m
Full, 98% of the Moon is Illuminated
Oct 31
Full
Nov 7
Last Quarter
Nov 13
New
Nov 20
First Quarter
Nov 28
Full

Hourly Weather History & Observations

Time (CET) Temp. Windchill Dew Point Humidity Pressure Visibility Wind Dir Wind Speed Gust Speed Precip Events Conditions
12:50 AM 44.6 °F 42.2 °F 37.4 °F 76% 29.89 in 6.2 mi SSW 4.6 mph - N/A   Mostly Cloudy
1:50 AM 44.6 °F 42.2 °F 37.4 °F 76% 29.89 in 6.2 mi SW 4.6 mph - N/A   Scattered Clouds
2:50 AM 42.8 °F 41.1 °F 35.6 °F 76% 29.86 in 6.2 mi Variable 3.5 mph - N/A   Scattered Clouds
3:50 AM 42.8 °F 40.1 °F 35.6 °F 76% 29.86 in 6.2 mi SSW 4.6 mph - N/A   Scattered Clouds
4:50 AM 44.6 °F - 37.4 °F 76% 29.83 in 6.2 mi Variable 1.2 mph - N/A   Mostly Cloudy
5:50 AM 44.6 °F 41.4 °F 39.2 °F 81% 29.83 in 6.2 mi South 5.8 mph - N/A   Mostly Cloudy
6:50 AM 44.6 °F 42.2 °F 39.2 °F 81% 29.83 in 6.2 mi South 4.6 mph - N/A   Scattered Clouds
7:50 AM 46.4 °F 44.3 °F 39.2 °F 76% 29.83 in 6.2 mi SW 4.6 mph - N/A   Scattered Clouds
8:50 AM 48.2 °F - 41.0 °F 76% 29.80 in 6.2 mi SW 4.6 mph - N/A   Scattered Clouds
9:50 AM 50.0 °F - 41.0 °F 71% 29.80 in 6.2 mi SSW 5.8 mph - N/A   Scattered Clouds
10:50 AM 53.6 °F - 42.8 °F 67% 29.77 in 6.2 mi Variable 2.3 mph - N/A   Mostly Cloudy
11:50 AM 53.6 °F - 42.8 °F 67% 29.74 in 6.2 mi SSW 5.8 mph - N/A   Mostly Cloudy
12:50 PM 51.8 °F - 44.6 °F 76% 29.71 in 6.2 mi SSW 5.8 mph - N/A Rain Light Rain
1:50 PM 51.8 °F - 46.4 °F 82% 29.68 in 6.2 mi SSW 4.6 mph - N/A Rain Light Rain
2:50 PM 51.8 °F - 48.2 °F 88% 29.65 in 5.0 mi Variable 3.5 mph - N/A Rain Light Rain
3:50 PM 51.8 °F - 48.2 °F 88% 29.62 in 5.0 mi South 4.6 mph - N/A Rain Light Rain
4:50 PM 51.8 °F - 48.2 °F 88% 29.59 in 4.3 mi Variable 1.2 mph - N/A   Overcast
5:27 PM 51.8 °F - 48.2 °F 88% 29.56 in 2.5 mi Variable 3.5 mph - N/A   Overcast
5:50 PM 51.8 °F - 48.2 °F 88% 29.56 in 2.5 mi Variable 2.3 mph - N/A   Overcast
6:50 PM 53.6 °F - 50.0 °F 88% 29.50 in 2.5 mi Variable 1.2 mph - N/A   Mostly Cloudy
7:50 PM 51.8 °F - 46.4 °F 82% 29.47 in 2.5 mi SSW 4.6 mph - N/A   Scattered Clouds
8:50 PM 51.8 °F - 48.2 °F 88% 29.44 in 2.5 mi SSW 4.6 mph - N/A   Scattered Clouds
9:50 PM 51.8 °F - 48.2 °F 88% 29.42 in 1.9 mi SSW 5.8 mph - N/A Rain Light Rain
9:57 PM 51.8 °F - 48.2 °F 88% 29.42 in 1.9 mi SSW 4.6 mph - N/A Rain Rain
10:50 PM 51.8 °F - 48.2 °F 88% 29.39 in 1.9 mi WSW 4.6 mph - N/A Rain Rain
11:04 PM 51.8 °F - 48.2 °F 88% 29.36 in 3.1 mi Variable 3.5 mph - N/A Rain Light Rain
11:50 PM 50.0 °F - 48.2 °F 94% 29.36 in 2.5 mi Variable 3.5 mph - N/A Rain Light Rain